User: anonymous   Login
Location: Unspecified
(0.0000°N, 0.0000°E)
Time: 04:05:12
(UTC+00:00)
Language:

RISAT 1 - Orbit

View from above orbital plane
View from above orbital plane
View from above satellite
View from above satellite

Ground track
Ground track

The orbit data is extracted from the following two-line orbital elements,

1 38248U 12017A   15063.82541816  .00002560  00000-0  16612-3 0  9998
2 38248 097.5635 072.2437 0004570 055.6622 063.9520 15.08948407157261
Epoch (UTC): 04 March 2015 19:48:36
Eccentricity: 0.0004570
inclination: 97.5635°
perigee height: 536 km
apogee height: 542 km
right ascension of ascending node: 72.2437°
argument of perigee: 55.6622°
revolutions per day: 15.08948407
mean anomaly at epoch: 63.9520°
orbit number at epoch: 15726

The dashed part of the orbit path shows where the satellite is in the earth's shadow,  

DLR